1504306800.99,4624,22.63,73862.3,6.85,5.81,5.85,0,*46
1504306802.19,4625,22.63,73854.5,6.85,5.63,5.81,0,*4F
1504306803.38,4626,22.63,73852.8,6.85,5.51,5.71,0,*42
1504306804.55,4627,22.63,73858.0,6.85,5.59,5.63,0,*48
1504306805.74,4628,22.63,73872.3,6.85,5.63,5.73,0,*4F
1504306806.94,4629,22.63,73864.0,6.83,5.55,5.71,0,*4F
1504306808.11,4630,22.63,73872.5,6.83,5.49,5.59,0,*40
1504306809.31,4631,22.63,73880.8,6.83,5.67,5.81,0,*48
1504306810.51,4632,22.63,73862.5,6.85,5.63,5.85,0,*4D
1504306811.7,4633,22.63,73864.8,6.85,5.63,5.85,0,*4C
1504306812.87,4634,22.63,73864.3,6.83,5.49,5.71,0,*4E
1504306814.07,4635,22.63,73870.8,6.83,5.67,5.89,0,*44
1504306815.29,4636,22.63,73864.5,6.83,5.77,5.93,0,*4D
1504306816.49,4637,22.63,73862.3,6.83,5.81,5.99,0,*4F
1504306817.68,4638,22.63,73850.5,6.83,5.71,5.81,0,*46
1504306818.89,4639,22.69,73860.8,6.83,5.89,5.99,0,*49
1504306820.07,4640,22.63,73872.3,6.83,5.99,6.03,0,*46
1504306821.27,4641,22.63,73866.5,6.83,5.89,5.99,0,*46
1504306822.49,4642,22.63,73862.5,6.83,5.81,5.93,0,*47
1504306823.69,4643,22.63,73844.5,6.83,5.71,5.77,0,*43
1504306824.88,4644,22.63,73844.8,6.85,5.63,5.81,0,*48
1504306826.08,4645,22.63,73856.0,6.83,5.67,5.81,0,*4B
1504306827.27,4646,22.63,73852.0,6.85,5.71,5.85,0,*4D
1504306828.49,4647,22.63,73844.3,6.85,5.73,5.81,0,*4A
1504306829.69,4648,22.63,73850.8,6.83,5.71,5.89,0,*49
1504306830.89,4649,22.63,73854.0,6.83,5.81,5.99,0,*46
1504306832.09,4650,22.63,73858.3,6.83,5.81,5.99,0,*4E
1504306833.29,4651,22.63,73858.0,6.83,5.93,6.11,0,*4F
1504306834.53,4652,22.63,73846.3,6.81,5.77,5.89,0,*46
1504306835.74,4653,22.63,73848.5,6.83,5.77,5.89,0,*45
1504306836.94,4654,22.63,73842.5,6.85,5.81,5.95,0,*40
1504306838.14,4655,22.63,73846.8,6.83,5.81,5.99,0,*4B
1504306839.32,4656,22.63,73848.0,6.83,5.99,6.03,0,*41
1504306840.51,4657,22.63,73848.0,6.85,5.95,6.13,0,*4B
1504306841.7,4658,22.63,73850.0,6.83,6.03,6.11,0,*4C
1504306842.9,4659,22.63,73858.3,6.83,6.03,6.13,0,*4F
1504306844.09,4660,22.63,73858.8,6.83,6.11,6.13,0,*46
1504306845.3,4661,22.63,73858.0,6.83,5.93,6.03,0,*4F
1504306846.5,4662,22.63,73858.8,6.85,6.03,6.13,0,*41
1504306847.7,4663,22.63,73850.3,6.85,6.03,6.13,0,*40
1504306848.92,4664,22.63,73848.8,6.87,5.95,6.13,0,*49
1504306850.12,4665,22.63,73856.3,6.85,5.95,6.13,0,*4A
1504306851.29,4666,22.63,73858.5,6.85,5.95,6.07,0,*4C
1504306852.46,4667,22.63,73856.0,6.85,5.95,6.07,0,*4D
1504306853.66,4668,22.63,73862.8,6.87,6.03,6.07,0,*4C
1504306854.86,4669,22.63,73862.5,6.85,5.93,6.07,0,*45
1504306856.03,4670,22.63,73856.0,6.85,5.95,6.07,0,*4B
1504306857.26,4671,22.63,73850.3,6.87,5.81,6.03,0,*49
1504306858.46,4672,22.63,73838.0,6.85,5.93,6.07,0,*4F
1504306859.65,4673,22.63,73846.8,6.85,5.93,6.07,0,*4E
1504306860.87,4674,22.63,73852.5,6.85,5.93,6.13,0,*4C
1504306862.1,4675,22.63,73862.3,6.85,5.93,6.13,0,*4D
1504306863.3,4676,22.63,73870.5,6.85,6.03,6.13,0,*44
1504306864.49,4677,22.63,73876.8,6.85,6.07,6.13,0,*41
1504306865.71,4678,22.63,73864.8,6.87,6.03,6.13,0,*48
1504306866.89,4679,22.63,73864.8,6.85,5.95,6.07,0,*42
1504306868.11,4680,22.63,73838.3,6.87,5.81,5.95,0,*4B
1504306869.33,4681,22.63,73864.5,6.87,5.71,5.85,0,*44
1504306870.55,4682,22.63,73854.3,6.85,5.81,5.93,0,*4D
1504306871.79,4683,22.63,73850.0,6.87,5.73,5.93,0,*43
1504306873.01,4684,22.63,73844.3,6.85,5.73,5.85,0,*41
1504306874.21,4685,22.63,73840.3,6.85,5.59,5.73,0,*41
1504306875.41,4686,22.63,73852.3,6.85,5.81,6.03,0,*43
1504306876.61,4687,22.63,73860.3,6.89,5.99,6.17,0,*42
1504306877.83,4688,22.63,73864.0,6.87,5.95,6.13,0,*4B
1504306879.03,4689,22.63,73866.8,6.85,5.81,6.03,0,*4C
1504306880.25,4690,22.63,73866.3,6.85,5.73,5.93,0,*43
1504306881.47,4691,22.63,73866.8,6.87,5.63,5.85,0,*46
1504306882.64,4692,22.63,73860.3,6.85,5.63,5.95,0,*46
1504306883.84,4693,22.63,73856.8,6.85,5.59,5.81,0,*4B
1504306885.06,4694,22.63,73856.3,6.87,5.51,5.63,0,*4A
1504306886.23,4695,22.63,73846.5,6.85,5.59,5.63,0,*41
1504306887.4,4696,22.63,73836.3,6.85,5.49,5.59,0,*4A
1504306888.62,4697,22.63,73842.5,6.87,5.59,5.81,0,*4D
1504306889.84,4698,22.63,73854.5,6.87,5.63,5.85,0,*4F
1504306891.06,4699,22.63,73856.0,6.87,5.63,5.93,0,*49
1504306892.26,4700,22.63,73862.8,6.87,5.71,5.95,0,*4D
1504306893.43,4701,22.63,73856.0,6.85,5.71,5.95,0,*4E
1504306894.63,4702,22.63,73852.8,6.85,5.71,5.85,0,*4C
1504306895.82,4703,22.63,73840.8,6.85,5.59,5.81,0,*43
1504306897.01,4704,22.63,73844.0,6.85,5.51,5.71,0,*43
1504306898.24,4705,22.63,73838.8,6.87,5.41,5.51,0,*43
1504306899.41,4706,22.63,73814.5,6.83,5.23,5.45,0,*45
1504306900.64,4707,22.63,73834.8,6.81,5.55,5.77,0,*46
1504306901.83,4708,22.63,73844.3,6.85,5.71,5.85,0,*46
1504306903.03,4709,22.63,73858.8,6.83,5.59,5.89,0,*47
1504306904.23,4710,22.63,73862.8,6.83,5.67,5.93,0,*49
1504306905.42,4711,22.63,73868.0,6.83,5.59,5.77,0,*4F
1504306906.61,4712,22.63,73856.0,6.83,5.59,5.77,0,*4C
1504306907.81,4713,22.63,73854.3,6.83,5.67,5.81,0,*49
1504306909.0,4714,22.63,73856.8,6.85,5.63,5.81,0,*4C
1504306910.24,4715,22.63,73874.0,6.81,5.77,5.89,0,*44
1504306911.43,4716,22.63,73876.3,6.83,5.67,5.77,0,*45
1504306912.61,4717,22.63,73862.8,6.83,5.49,5.67,0,*49
1504306913.78,4718,22.63,73866.5,6.83,5.49,5.67,0,*46
1504306915.0,4719,22.63,73864.5,6.81,5.71,5.89,0,*4E
1504306916.21,4720,22.63,73858.3,6.83,5.77,5.93,0,*4B
1504306917.43,4721,22.63,73864.5,6.81,5.67,5.81,0,*4A
1504306918.65,4722,22.63,73868.3,6.81,5.77,5.99,0,*41
1504306919.84,4723,22.63,73856.0,6.83,5.71,5.81,0,*4D
1504306921.04,4724,22.63,73854.5,6.83,5.71,5.81,0,*4A
1504306922.23,4725,22.63,73856.5,6.83,5.71,5.81,0,*4B
1504306923.47,4726,22.63,73854.5,6.81,5.55,5.77,0,*45
1504306924.68,4727,22.63,73862.0,6.81,5.59,5.77,0,*48
1504306925.87,4728,22.63,73866.8,6.83,5.71,5.89,0,*4E
1504306927.07,4729,22.63,73872.3,6.83,5.81,6.03,0,*41
1504306928.27,4730,22.63,73876.5,6.83,5.81,6.11,0,*4A
1504306929.49,4731,22.63,73872.3,6.81,5.81,6.11,0,*49
1504306930.69,4732,22.63,73874.3,6.83,5.81,6.11,0,*48
1504306931.91,4733,22.63,73868.8,6.81,5.89,6.03,0,*40
1504306933.13,4734,22.63,73864.8,6.83,5.77,5.93,0,*4E
1504306934.32,4735,22.63,73860.0,6.85,5.59,5.73,0,*4B
1504306935.53,4736,22.63,73866.3,6.85,5.51,5.73,0,*40
1504306936.72,4737,22.63,73862.8,6.83,5.55,5.71,0,*41
1504306937.92,4738,22.63,73858.8,6.83,5.59,5.77,0,*44
1504306939.11,4739,22.63,73856.8,6.83,5.71,5.89,0,*4E
1504306940.32,4740,22.63,73862.0,6.83,5.77,5.89,0,*46
1504306941.53,4741,22.63,73862.3,6.83,5.89,6.03,0,*47
1504306942.74,4742,22.63,73858.5,6.83,5.93,6.03,0,*4F
1504306943.96,4743,22.63,73862.8,6.81,5.89,5.99,0,*47
1504306945.14,4744,22.63,73856.0,6.83,5.99,6.11,0,*40
1504306946.34,4745,22.63,73868.3,6.83,5.93,6.03,0,*48
1504306947.55,4746,22.63,73858.0,6.83,5.93,6.11,0,*48
1504306948.72,4747,22.63,73864.0,6.83,5.99,6.11,0,*43
1504306949.93,4748,22.63,73864.8,6.83,5.89,6.03,0,*4E
1504306951.15,4749,22.63,73870.5,6.83,5.81,5.93,0,*4D
1504306952.35,4750,22.63,73858.5,6.83,5.55,5.71,0,*40
1504306953.54,4751,22.63,73850.0,6.83,5.55,5.67,0,*46
1504306954.76,4752,22.63,73862.8,6.83,5.81,5.93,0,*47
1504306955.96,4753,22.63,73840.8,6.83,5.55,5.71,0,*43
1504306957.15,4754,22.63,73848.3,6.85,5.71,5.85,0,*4F
1504306958.34,4755,22.63,73850.5,6.83,5.67,5.77,0,*42
1504306959.54,4756,22.63,73840.8,6.83,5.67,5.77,0,*41
1504306960.73,4757,22.56,73840.5,6.83,5.55,5.71,0,*47
1504306961.95,4758,22.63,73854.5,6.81,5.67,5.81,0,*44
1504306963.15,4759,22.63,73846.8,6.83,5.67,5.89,0,*4F
1504306964.35,4760,22.63,73842.3,6.83,5.67,5.81,0,*4D
1504306965.54,4761,22.63,73836.0,6.85,5.71,5.93,0,*4E
1504306966.74,4762,22.63,73844.8,6.83,5.77,5.99,0,*47
1504306967.93,4763,22.63,73844.3,6.83,5.77,5.99,0,*46
1504306969.15,4764,22.63,73846.3,6.81,5.77,5.99,0,*43
1504306970.34,4765,22.63,73848.3,6.83,5.77,6.03,0,*40
1504306971.54,4766,22.63,73848.3,6.83,5.77,6.03,0,*43
1504306972.71,4767,22.63,73850.0,6.83,5.71,5.99,0,*44
1504306973.89,4768,22.63,73852.0,6.83,5.71,5.99,0,*4B
1504306975.08,4769,22.63,73852.0,6.83,5.77,6.03,0,*4C
1504306976.28,4770,22.63,73858.8,6.85,5.81,6.03,0,*4B
1504306977.45,4771,22.63,73850.8,6.85,5.71,5.95,0,*49
1504306978.63,4772,22.63,73858.8,6.85,5.63,6.03,0,*45
1504306979.84,4773,22.63,73856.5,6.85,5.73,6.13,0,*44
1504306981.02,4774,22.63,73862.8,6.85,5.63,6.03,0,*43
1504306982.21,4775,22.63,73862.0,6.85,5.51,6.03,0,*43
1504306983.38,4776,22.63,73864.0,6.85,5.49,6.07,0,*4D
1504306984.55,4777,22.63,73864.0,6.85,5.23,5.95,0,*48
1504306985.77,4778,22.63,73868.5,6.85,5.05,5.93,0,*45
1504306986.99,4779,22.63,73862.8,6.85,4.67,5.93,0,*41
1504306988.19,4780,22.63,73864.8,6.89,4.45,5.85,0,*4C
1504306989.38,4781,22.63,73860.5,6.85,4.11,5.73,0,*49
1504306990.59,4782,22.63,73854.0,6.85,3.75,5.63,0,*4E
1504306991.78,4783,22.63,73854.5,6.85,3.53,5.63,0,*4B
1504306992.98,4784,22.63,73854.0,6.85,3.71,5.71,0,*4F
1504306994.21,4785,22.63,73848.0,6.87,3.71,5.71,0,*4C
1504306995.41,4786,22.63,73852.5,6.85,3.41,5.59,0,*44
1504306996.64,4787,22.63,73854.8,6.87,3.29,5.51,0,*41
1504306997.83,4788,22.63,73848.5,6.85,3.49,5.71,0,*48
1504306999.0,4789,22.63,73852.8,6.85,3.63,5.63,0,*42
1504307000.23,4790,22.63,73852.3,6.87,3.59,5.81,0,*4D
1504307001.45,4791,22.56,73850.5,6.85,3.75,5.81,0,*40
1504307002.63,4792,22.56,73848.8,6.85,3.81,5.71,0,*47
1504307003.85,4793,22.63,73852.3,6.87,4.11,5.73,0,*48
1504307005.07,4794,22.56,73848.3,6.87,4.81,5.93,0,*48
1504307006.26,4795,22.63,73854.8,6.85,5.23,5.93,0,*42
1504307007.43,4796,22.56,73846.5,6.85,5.49,5.95,0,*4B
1504307008.63,4797,22.63,73840.5,6.87,5.59,6.03,0,*45
1504307009.82,4798,22.63,73840.0,6.85,5.51,6.07,0,*44
1504307010.99,4799,22.63,73846.8,6.85,5.63,6.07,0,*44
1504307012.18,4800,22.63,73848.3,6.87,5.71,6.07,0,*4A
1504307013.42,4801,22.56,73848.0,6.87,5.73,6.13,0,*4C
1504307014.64,4802,22.56,73844.3,6.85,5.81,6.13,0,*40
1504307015.86,4803,22.56,73844.5,6.85,5.81,6.13,0,*41
1504307017.11,4804,22.63,73856.8,6.87,5.93,6.13,0,*47
1504307018.33,4805,22.56,73856.8,6.87,5.95,6.17,0,*44
1504307019.57,4806,22.63,73862.5,6.87,5.85,6.13,0,*42
1504307020.79,4807,22.56,73850.3,6.87,5.71,5.85,0,*44
1504307021.99,4808,22.63,73850.8,6.85,5.59,5.81,0,*47
1504307023.21,4809,22.56,73862.3,6.87,5.81,6.03,0,*48
1504307024.46,4810,22.56,73848.5,6.87,5.73,5.93,0,*47
1504307025.68,4811,22.63,73846.8,6.87,5.63,5.93,0,*47
1504307026.91,4812,22.56,73836.5,6.87,5.63,5.85,0,*43
1504307028.13,4813,22.56,73820.8,6.87,5.71,5.93,0,*46
1504307029.37,4814,22.56,73816.8,6.87,5.73,5.93,0,*43
1504307030.57,4815,22.63,73838.3,6.85,5.85,5.95,0,*4F
1504307031.79,4816,22.63,73852.0,6.87,5.81,6.03,0,*46
1504307033.04,4817,22.56,73860.8,6.87,5.85,6.13,0,*42
1504307034.23,4818,22.56,73872.3,6.85,5.85,6.07,0,*4A
1504307035.45,4819,22.56,73836.5,6.85,5.73,5.93,0,*4C
1504307036.67,4820,22.56,73826.8,6.87,5.81,5.95,0,*4F
1504307037.87,4821,22.63,73820.8,6.85,5.63,5.85,0,*41
1504307039.09,4822,22.56,73838.0,6.85,5.73,5.93,0,*44
1504307040.28,4823,22.56,73850.3,6.85,5.71,5.93,0,*47
1504307041.5,4824,22.56,73840.8,6.87,5.63,5.85,0,*46
1504307042.7,4825,22.56,73836.3,6.85,5.63,5.93,0,*42
1504307043.92,4826,22.56,73828.3,6.87,5.71,5.93,0,*40
1504307045.11,4827,22.56,73836.5,6.85,5.59,5.85,0,*4E
1504307046.31,4828,22.56,73824.5,6.85,5.63,5.85,0,*48
1504307047.51,4829,22.56,73828.8,6.87,5.59,5.95,0,*43
1504307048.7,4830,22.56,73862.3,6.85,5.49,5.93,0,*4E
1504307049.89,4831,22.56,73854.8,6.85,5.27,5.95,0,*41
1504307051.08,4832,22.56,73846.5,6.85,4.89,5.85,0,*46
1504307052.3,4833,22.56,73856.0,6.85,4.67,5.73,0,*4E
1504307053.52,4834,22.56,73854.0,6.85,4.79,5.85,0,*4F
1504307054.74,4835,22.56,73852.3,6.87,5.23,5.81,0,*46
1504307055.93,4836,22.56,73858.5,6.85,5.37,5.73,0,*4F
1504307057.15,4837,22.56,73860.5,6.83,5.55,5.81,0,*41
1504307058.32,4838,22.56,73860.8,6.85,5.63,6.03,0,*44
1504307059.54,4839,22.63,73840.3,6.85,5.51,5.93,0,*4E
1504307060.71,4840,22.56,73824.8,6.85,5.33,5.71,0,*48
1504307061.9,4841,22.56,73834.5,6.85,5.37,5.73,0,*4F
1504307063.09,4842,22.56,73840.3,6.85,5.23,5.81,0,*44
1504307064.29,4843,22.63,73844.3,6.85,5.15,5.85,0,*44
1504307065.48,4844,22.56,73850.0,6.85,5.11,5.93,0,*40
1504307066.67,4845,22.56,73856.0,6.85,5.27,5.95,0,*42
1504307067.83,4846,22.56,73862.8,6.85,5.37,6.07,0,*48
1504307069.03,4847,22.56,73856.0,6.85,5.23,5.85,0,*45
1504307070.22,4848,22.56,73858.3,6.85,5.11,5.93,0,*4C
1504307071.44,4849,22.56,73856.0,6.85,5.27,5.93,0,*48
1504307072.61,4850,22.56,73862.8,6.85,5.49,6.03,0,*42
1504307073.78,4851,22.56,73862.0,6.85,5.49,6.03,0,*43
1504307074.98,4852,22.56,73856.8,6.87,5.59,5.95,0,*4F
1504307076.17,4853,22.56,73846.0,6.85,5.71,5.93,0,*40
1504307077.39,4854,22.56,73846.0,6.85,5.73,5.93,0,*45
1504307078.59,4855,22.56,73846.0,6.85,5.93,5.95,0,*4C
1504307079.79,4856,22.56,73846.0,6.87,5.95,6.07,0,*43
1504307081.01,4857,22.56,73842.0,6.85,5.73,5.93,0,*46
1504307082.2,4858,22.56,73832.3,6.85,5.71,5.85,0,*4C
1504307083.42,4859,22.56,73834.8,6.87,5.71,5.85,0,*4F
1504307084.61,4860,22.56,73834.8,6.85,5.59,5.81,0,*49
1504307085.85,4861,22.56,73842.0,6.87,5.51,5.73,0,*4F
1504307087.05,4862,22.56,73832.8,6.85,5.63,5.85,0,*46
1504307088.24,4863,22.56,73822.3,6.85,5.71,5.93,0,*43
1504307089.44,4864,22.56,73810.0,6.83,5.71,5.89,0,*49
1504307090.65,4865,22.56,73810.8,6.85,5.77,5.93,0,*43
1504307091.85,4866,22.56,73822.0,6.85,5.81,6.03,0,*43
1504307093.05,4867,22.56,73814.3,6.85,5.81,5.95,0,*4E
1504307094.25,4868,22.56,73806.3,6.85,5.81,6.03,0,*4D
1504307095.47,4869,22.56,73808.8,6.85,5.93,6.13,0,*4E
1504307096.69,4870,22.56,73816.0,6.85,5.93,6.13,0,*46
1504307097.93,4871,22.56,73794.8,6.87,5.85,6.13,0,*42
1504307099.13,4872,22.56,73784.0,6.85,5.73,5.95,0,*47
1504307100.35,4873,22.56,73792.3,6.85,5.81,6.13,0,*46
1504307101.56,4874,22.56,73808.0,6.85,5.85,6.13,0,*45
1504307102.78,4875,22.56,73828.8,6.85,5.85,6.17,0,*40
1504307104.0,4876,22.56,73832.8,6.85,5.85,6.17,0,*43
1504307105.22,4877,22.56,73838.8,6.85,5.81,6.13,0,*42
1504307106.43,4878,22.56,73840.8,6.85,5.85,6.13,0,*49
1504307107.65,4879,22.56,73842.8,6.87,5.73,6.07,0,*46
1504307108.84,4880,22.56,73840.0,6.87,5.59,6.07,0,*48
1504307110.06,4881,22.56,73834.8,6.87,5.51,5.95,0,*49
1504307111.28,4882,22.56,73838.3,6.85,5.51,5.93,0,*4E
1504307112.47,4883,22.56,73832.5,6.85,5.51,6.03,0,*45
1504307113.64,4884,22.56,73838.3,6.85,5.59,6.07,0,*4E
1504307114.81,4885,22.56,73826.3,6.85,5.49,6.03,0,*4A
1504307116.03,4886,22.56,73810.5,6.87,5.41,5.93,0,*49
1504307117.25,4887,22.56,73794.5,6.87,5.49,5.93,0,*40
1504307118.44,4888,22.56,73800.0,6.85,5.41,5.85,0,*42
1504307119.66,4889,22.56,73802.0,6.87,5.37,5.93,0,*47
1504307120.83,4890,22.56,73816.8,6.85,5.49,6.03,0,*4E
1504307122.03,4891,22.56,73818.8,6.87,5.49,6.03,0,*4D
1504307123.22,4892,22.56,73826.8,6.87,5.49,6.07,0,*4A
1504307124.38,4893,22.56,73826.3,6.85,5.49,6.07,0,*49
1504307125.58,4894,22.56,73822.3,6.87,5.49,6.03,0,*48
1504307126.78,4895,22.56,73818.3,6.87,5.37,6.03,0,*40
1504307127.98,4896,22.56,73822.8,6.87,5.33,6.07,0,*43
1504307129.18,4897,22.56,73830.0,6.87,5.23,6.03,0,*47
1504307130.36,4898,22.56,73830.5,6.85,5.27,6.07,0,*4A
1504307131.58,4899,22.56,73838.0,6.87,5.37,6.13,0,*4D
1504307132.78,4900,22.56,73826.5,6.87,5.33,6.03,0,*49
1504307133.97,4901,22.56,73818.3,6.87,5.59,6.07,0,*40
1504307135.16,4902,22.56,73822.5,6.85,5.63,6.13,0,*4D
1504307136.35,4903,22.56,73826.5,6.85,5.73,6.07,0,*48
1504307137.6,4904,22.56,73826.0,6.87,5.73,6.13,0,*48
1504307138.8,4905,22.56,73828.3,6.87,5.71,6.03,0,*4A
1504307140.04,4906,22.56,73826.5,6.87,5.73,6.13,0,*4A
1504307141.29,4907,22.56,73830.0,6.87,5.93,6.13,0,*45
1504307142.54,4908,22.56,73830.3,6.87,5.93,6.13,0,*4A
1504307143.75,4909,22.56,73836.3,6.85,5.85,6.13,0,*4E
1504307144.97,4910,22.56,73836.8,6.87,5.85,6.07,0,*41
1504307146.16,4911,22.56,73828.5,6.85,5.59,5.73,0,*43
1504307147.41,4912,22.56,73830.3,6.87,5.51,5.85,0,*43
1504307148.6,4913,22.56,73830.0,6.89,5.63,5.77,0,*40
1504307149.85,4914,22.56,73834.8,6.87,5.73,5.93,0,*42
1504307151.07,4915,22.56,73840.5,6.85,5.93,6.13,0,*44
1504307152.3,4916,22.56,73832.8,6.87,5.93,6.03,0,*44
1504307153.53,4917,22.56,73840.0,6.87,5.93,6.03,0,*45
1504307154.78,4918,22.56,73836.5,6.87,5.93,6.13,0,*4B
1504307155.98,4919,22.56,73828.0,6.85,5.93,6.07,0,*4D
1504307157.2,4920,22.56,73826.8,6.87,5.85,6.07,0,*42
1504307158.42,4921,22.56,73820.8,6.87,5.95,6.13,0,*47
1504307159.65,4922,22.56,73816.3,6.87,6.03,6.13,0,*48
1504307160.88,4923,22.56,73816.0,6.87,6.03,6.17,0,*4D
1504307162.08,4924,22.56,73808.5,6.87,6.03,6.21,0,*4F
1504307163.3,4925,22.56,73808.8,6.87,6.07,6.17,0,*4F
1504307164.53,4926,22.56,73822.8,6.87,6.03,6.13,0,*4C
1504307165.76,4927,22.56,73830.0,6.87,6.03,6.13,0,*4D
1504307166.96,4928,22.56,73830.3,6.89,6.17,6.21,0,*48
1504307168.18,4929,22.56,73834.3,6.87,6.03,6.13,0,*43
1504307169.38,4930,22.56,73838.5,6.87,6.07,6.21,0,*4E
1504307170.6,4931,22.56,73840.0,6.87,6.07,6.17,0,*4A
1504307171.8,4932,22.56,73838.0,6.89,6.17,6.25,0,*47
1504307173.0,4933,22.56,73838.8,6.89,6.17,6.25,0,*46
1504307174.2,4934,22.56,73842.0,6.89,6.17,6.25,0,*41
1504307175.4,4935,22.56,73840.5,6.89,6.17,6.25,0,*40
1504307176.63,4936,22.56,73840.3,6.91,6.13,6.25,0,*4E
1504307177.84,4937,22.56,73842.0,6.91,6.21,6.25,0,*4E
1504307179.07,4938,22.56,73844.0,6.91,6.13,6.29,0,*4C
1504307180.25,4939,22.56,73844.5,6.89,6.21,6.25,0,*49
1504307181.42,4940,22.56,73850.3,6.89,6.11,6.21,0,*40
1504307182.63,4941,22.56,73846.5,6.91,6.11,6.25,0,*4C
1504307183.8,4942,22.56,73846.5,6.89,6.11,6.25,0,*46
1504307185.0,4943,22.56,73846.3,6.89,6.07,6.17,0,*41
1504307186.19,4944,22.56,73848.8,6.89,6.07,6.17,0,*46
1504307187.42,4945,22.56,73844.5,6.91,6.13,6.25,0,*4A
1504307188.65,4946,22.56,73836.0,6.91,6.13,6.25,0,*49
1504307189.88,4947,22.56,73834.5,6.91,6.13,6.25,0,*48
1504307191.09,4948,22.56,73836.8,6.91,6.21,6.25,0,*46
1504307192.29,4949,22.56,73836.5,6.93,6.13,6.25,0,*44
1504307193.52,4950,22.56,73842.0,6.91,6.13,6.25,0,*4E
1504307194.73,4951,22.56,73844.8,6.91,6.21,6.25,0,*4E
1504307195.9,4952,22.56,73842.5,6.93,6.25,6.29,0,*47
1504307197.11,4953,22.56,73838.0,6.91,6.21,6.29,0,*40
1504307198.28,4954,22.56,73844.5,6.93,6.21,6.25,0,*49
1504307199.46,4955,22.56,73848.3,6.93,6.11,6.25,0,*4B
1504307200.66,4956,22.56,73842.3,6.91,6.21,6.25,0,*49
1504307201.87,4957,22.56,73842.3,6.91,6.21,6.29,0,*44
1504307203.07,4958,22.56,73840.3,6.91,6.21,6.29,0,*4B
1504307204.31,4959,22.56,73842.3,6.91,6.21,6.35,0,*47
1504307205.49,4960,22.56,73840.8,6.93,6.21,6.25,0,*4E
1504307206.7,4961,22.56,73840.5,6.91,6.03,6.21,0,*49
1504307207.9,4962,22.56,73840.8,6.91,6.11,6.21,0,*49
1504307209.1,4963,22.56,73840.0,6.91,6.11,6.21,0,*48
1504307210.3,4964,22.56,73836.8,6.91,6.11,6.21,0,*4F
1504307211.53,4965,22.56,73838.3,6.91,6.13,6.21,0,*4C
1504307212.76,4966,22.56,73842.0,6.91,6.13,6.25,0,*4B
1504307213.99,4967,22.56,73842.0,6.91,6.13,6.25,0,*4A
1504307215.19,4968,22.56,73834.8,6.93,6.13,6.25,0,*47
1504307216.39,4969,22.56,73834.5,6.93,6.13,6.29,0,*4A
1504307217.59,4970,22.56,73836.5,6.95,6.25,6.29,0,*41
1504307218.76,4971,22.56,73828.8,6.93,6.21,6.29,0,*42
1504307219.93,4972,22.56,73832.0,6.93,6.21,6.29,0,*41
1504307221.13,4973,22.56,73834.0,6.93,6.13,6.29,0,*41
1504307222.31,4974,22.56,73840.8,6.93,6.21,6.25,0,*4B
1504307223.51,4975,22.56,73838.5,6.93,6.13,6.21,0,*4F
1504307224.68,4976,22.56,73836.8,6.93,6.21,6.29,0,*45
1504307225.88,4977,22.56,73838.5,6.93,6.13,6.25,0,*49
1504307227.06,4978,22.56,73840.0,6.93,6.21,6.25,0,*47
1504307228.25,4979,22.56,73840.5,6.93,6.13,6.29,0,*4B
1504307229.47,4980,22.56,73838.5,6.95,6.17,6.29,0,*4F
1504307230.67,4981,22.56,73838.8,6.93,6.13,6.29,0,*4C
1504307231.85,4982,22.56,73840.0,6.93,6.25,6.33,0,*41
1504307233.02,4983,22.56,73840.5,6.93,6.21,6.25,0,*43
1504307234.22,4984,22.56,73840.5,6.95,6.25,6.29,0,*4A
1504307235.42,4985,22.56,73844.8,6.95,6.25,6.29,0,*4B
1504307236.65,4986,22.56,73844.0,6.95,6.13,6.25,0,*41
1504307237.87,4987,22.56,73844.8,6.95,6.13,6.25,0,*40
1504307239.07,4988,22.56,73838.8,6.93,5.89,6.03,0,*4D
1504307240.28,4989,22.56,73844.5,6.93,5.93,6.03,0,*47
1504307241.48,4990,22.56,73866.3,6.93,5.89,5.99,0,*44
1504307242.7,4991,22.56,73848.8,6.93,5.81,5.93,0,*47
1504307243.89,4992,22.56,73840.5,6.93,5.71,5.81,0,*48
1504307245.11,4993,22.56,73830.5,6.93,5.81,5.89,0,*4E
1504307246.35,4994,22.56,73842.0,6.91,5.93,6.03,0,*49
1504307247.58,4995,22.56,73842.8,6.91,5.81,5.99,0,*4B
1504307248.78,4996,22.56,73838.3,6.91,5.99,6.11,0,*42
1504307249.98,4997,22.56,73842.5,6.93,5.93,6.03,0,*48
1504307251.22,4998,22.56,73840.0,6.91,5.93,6.03,0,*45
1504307252.45,4999,22.56,73838.8,6.91,5.93,6.03,0,*44
1504307253.69,5000,22.56,73838.8,6.91,5.89,6.03,0,*47
1504307254.9,5001,22.56,73844.5,6.91,5.99,6.03,0,*47
1504307256.12,5002,22.56,73850.0,6.91,5.99,6.13,0,*45
1504307257.35,5003,22.56,73844.8,6.91,5.81,6.03,0,*4C
1504307258.6,5004,22.56,73834.5,6.91,5.77,5.89,0,*43
1504307259.84,5005,22.56,73842.5,6.91,5.77,5.89,0,*42
1504307261.06,5006,22.56,73850.0,6.89,5.73,5.85,0,*40
1504307262.3,5007,22.56,73836.0,6.91,5.77,5.93,0,*4B
1504307263.53,5008,22.56,73832.0,6.91,5.71,5.89,0,*49
1504307264.75,5009,22.56,73838.3,6.91,5.71,5.77,0,*49
1504307265.94,5010,22.56,73826.3,6.89,5.63,5.73,0,*4F
1504307267.12,5011,22.56,73834.5,6.89,5.63,5.67,0,*4B
1504307268.32,5012,22.56,73834.5,6.89,5.55,5.67,0,*4D
1504307269.52,5013,22.56,73820.0,6.89,5.63,5.73,0,*4C
1504307270.71,5014,22.56,73820.8,6.89,5.67,5.77,0,*4B
1504307271.91,5015,22.56,73810.3,6.89,5.63,5.73,0,*4A
1504307273.11,5016,22.56,73802.5,6.89,5.67,5.77,0,*49
1504307274.33,5017,22.56,73812.0,6.89,5.73,5.73,0,*49
1504307275.51,5018,22.56,73818.0,6.89,5.63,5.67,0,*42
1504307276.73,5019,22.56,73810.8,6.87,5.51,5.63,0,*48
1504307277.93,5020,22.56,73802.3,6.87,5.59,5.71,0,*49
1504307279.17,5021,22.56,73808.3,6.87,5.73,5.85,0,*4B
1504307280.37,5022,22.56,73820.8,6.85,5.81,5.95,0,*46
1504307281.57,5023,22.56,73820.8,6.85,5.93,5.95,0,*44
1504307282.77,5024,22.56,73826.3,6.85,5.81,5.95,0,*40
1504307283.97,5025,22.56,73826.5,6.85,5.93,5.95,0,*42
1504307285.19,5026,22.56,73820.5,6.87,5.85,6.07,0,*4C
1504307286.42,5027,22.56,73806.3,6.87,5.93,5.95,0,*42
1504307287.64,5028,22.5,73810.0,6.87,5.95,6.13,0,*46
1504307288.84,5029,22.56,73830.5,6.85,6.03,6.13,0,*49
1504307290.07,5030,22.56,73838.8,6.87,6.03,6.13,0,*43
1504307291.27,5031,22.56,73840.8,6.87,6.03,6.07,0,*47
1504307292.5,5032,22.56,73842.0,6.87,6.03,6.13,0,*41
1504307293.71,5033,22.56,73846.5,6.87,6.07,6.13,0,*44
1504307294.94,5034,22.56,73846.3,6.87,6.03,6.13,0,*47
1504307296.17,5035,22.56,73844.5,6.87,6.03,6.13,0,*46
1504307297.39,5036,22.56,73850.3,6.87,5.95,6.13,0,*49
1504307298.61,5037,22.56,73850.8,6.87,5.95,6.13,0,*48
1504307299.84,5038,22.56,73848.8,6.87,6.03,6.13,0,*4B
1504307301.01,5039,22.56,73852.3,6.89,5.99,6.21,0,*45
1504307302.21,5040,22.56,73836.8,6.89,5.85,6.21,0,*46
1504307303.41,5041,22.56,73848.8,6.91,5.71,6.25,0,*41
1504307304.6,5042,22.56,73856.8,6.89,5.27,6.07,0,*48
1504307305.82,5043,22.56,73856.0,6.91,4.53,5.93,0,*4C
1504307307.05,5044,22.56,73842.8,6.89,3.23,5.55,0,*48
1504307308.26,5045,22.56,73844.3,6.89,1.97,5.41,0,*41
1504307309.45,5046,22.56,73828.0,6.89,0.95,5.41,0,*71
1504307310.64,5047,22.56,73834.5,6.89,0.17,5.37,0,*7B
1504307311.85,5048,22.56,73846.3,6.87,-0.61,5.27,0,*57
1504307313.07,5049,22.5,73838.5,6.87,-1.33,5.33,0,*65
1504307314.3,5050,22.56,73848.3,6.87,-1.47,5.33,0,*6E
1504307315.55,5051,22.56,73838.8,6.87,-1.35,5.27,0,*6F
1504307316.81,5052,22.56,73844.3,6.87,-1.13,5.27,0,*68
1504307318.01,5053,22.5,73840.3,6.87,0.05,5.23,0,*46
1504307319.23,5054,22.56,73844.0,6.87,0.47,5.37,0,*72
1504307320.44,5055,22.56,73838.5,6.87,0.17,5.33,0,*72
1504307321.66,5056,22.56,73832.5,6.87,0.51,5.33,0,*73
1504307322.88,5057,22.56,73834.5,6.87,1.71,5.41,0,*44
1504307324.06,5058,22.56,73816.8,6.85,2.65,5.49,0,*47
1504307325.28,5059,22.56,73826.3,6.87,3.49,5.59,0,*4A
1504307326.49,5060,22.56,73820.0,6.87,4.11,5.59,0,*4A
1504307327.72,5061,22.56,73802.8,6.87,4.71,5.59,0,*4D
1504307328.9,5062,22.56,73808.8,6.85,5.11,5.59,0,*4B
1504307330.12,5063,22.56,73830.8,6.87,5.23,5.51,0,*41
1504307331.29,5064,22.56,73834.8,6.85,5.15,5.41,0,*40
1504307332.49,5065,22.56,73824.3,6.87,5.23,5.49,0,*4E
1504307333.68,5066,22.56,73808.8,6.87,5.37,5.49,0,*48
1504307334.88,5067,22.5,73828.5,6.87,5.49,5.63,0,*48
1504307336.12,5068,22.56,73824.8,6.87,5.51,5.73,0,*4F